K3TE Weather Reports


Display with metric or nautical units.
time (UTC)temp
F
wind
direction
speed
MPH
gust
MPH
rain 1hr
in
rain 24hr
in
rain mn
in
humidity
%
barometer
mb
20260506221601 60 0 0.0 2.0 0.01 0.56 0.56 96 1009.3
20260506220101 60 0 0.0 3.0 0.00 0.55 0.55 96 1009.1
20260506214600 60 0 0.0 3.0 0.00 0.55 0.55 96 1008.9
20260506213058 60 227 0.0 4.0 0.00 0.55 0.55 97 1008.7
20260506211558 60 243 1.0 5.0 0.00 0.55 0.55 97 1008.6
20260506210058 60 0 1.0 7.0 0.00 0.55 0.55 97 1008.5
20260506204600 59 0 0.0 4.0 0.00 0.55 0.55 97 1008.4
20260506203059 59 232 1.0 5.0 0.00 0.55 0.55 97 1008.4
20260506201625 59 245 1.0 4.0 0.00 0.55 0.55 97 1008.4
20260506200058 59 233 1.0 9.0 0.00 0.55 0.55 97 1008.5
20260506194559 59 63 0.0 4.0 0.00 0.55 0.55 97 1008.5
20260506193058 59 233 0.0 5.0 0.00 0.55 0.55 97 1008.6
20260506191559 58 216 0.0 4.0 0.01 0.55 0.55 97 1008.8
20260506190107 58 226 2.0 9.0 0.02 0.55 0.55 97 1008.8
20260506184601 58 192 1.0 5.0 0.05 0.55 0.55 97 1008.9
20260506183059 58 182 1.0 7.0 0.08 0.55 0.55 97 1009.0
20260506181601 58 198 1.0 6.0 0.11 0.54 0.54 97 1009.1
20260506180059 58 153 2.0 7.0 0.13 0.52 0.52 97 1009.1
20260506174601 58 207 1.0 12.0 0.14 0.50 0.50 97 1009.2
20260506173130 58 149 2.0 9.0 0.17 0.47 0.47 97 1009.2
20260506171601 58 143 1.0 8.0 0.13 0.43 0.43 97 1009.3
20260506164559 58 148 3.0 13.0 0.07 0.36 0.36 96 1009.4
20260506163114 57 207 2.0 10.0 0.03 0.30 0.30 96 1009.4
20260506161605 57 214 2.0 10.0 0.07 0.30 0.30 96 1009.5
20260506160103 57 197 2.0 9.0 0.12 0.30 0.30 95 1009.5
20260506154602 57 187 5.0 14.0 0.14 0.29 0.29 95 1009.4
20260506153100 57 168 4.0 13.0 0.14 0.27 0.27 95 1009.5
20260506151559 57 163 4.0 12.0 0.13 0.23 0.23 95 1009.8
20260506150057 58 172 3.0 10.0 0.10 0.18 0.18 95 1010.2
20260506144601 58 173 4.0 11.0 0.08 0.15 0.15 95 1009.8
20260506143100 58 125 1.0 7.0 0.07 0.13 0.13 95 1009.8
20260506141600 58 160 3.0 8.0 0.05 0.10 0.10 94 1009.7
20260506140104 58 165 3.0 9.0 0.05 0.08 0.08 93 1010.1
20260506134559 58 182 1.0 8.0 0.05 0.07 0.07 93 1010.2
20260506133103 58 0 2.0 8.0 0.05 0.06 0.06 93 1010.1
20260506131600 58 154 2.0 9.0 0.04 0.05 0.05 92 1010.3
20260506130106 58 170 1.0 9.0 0.03 0.03 0.03 91 1010.4
20260506124600 59 187 1.0 8.0 0.02 0.02 0.02 90 1010.5
20260506123058 59 172 2.0 11.0 0.01 0.01 0.01 88 1010.4
20260506121626 60 189 3.0 9.0 0.01 0.01 0.01 86 1010.3
20260506120111 59 180 3.0 12.0 0.00 0.00 0.00 87 1010.1
20260506114619 59 175 3.0 8.0 0.00 0.00 0.00 87 1010.1
20260506113058 60 149 2.0 9.0 0.00 0.00 0.00 86 1010.0
20260506111557 60 205 1.0 9.0 0.00 0.00 0.00 83 1010.1
20260506110058 61 187 2.0 8.0 0.00 0.00 0.00 80 1010.1
20260506104600 61 261 3.0 10.0 0.00 0.00 0.00 77 1009.8
20260506103100 61 195 5.0 12.0 0.00 0.00 0.00 76 1009.7
20260506101557 61 139 2.0 7.0 0.00 0.00 0.00 76 1009.6
20260506100057 61 207 2.0 6.0 0.00 0.00 0.00 75 1009.5
20260506094600 61 171 0.0 2.0 0.00 0.00 0.00 74 1009.6
20260506093113 62 0 0.0 6.0 0.00 0.00 0.00 72 1009.8
20260506091558 62 187 1.0 6.0 0.00 0.00 0.00 71 1009.7
20260506090121 61 187 2.0 6.0 0.00 0.00 0.00 71 1009.7
20260506084558 61 161 1.0 6.0 0.00 0.03 0.00 70 1009.8
20260506083058 62 0 1.0 5.0 0.00 0.03 0.00 69 1009.8
20260506081557 62 178 2.0 6.0 0.00 0.03 0.00 67 1009.8
20260506080110 62 145 2.0 6.0 0.00 0.03 0.00 66 1009.8
20260506073111 63 186 1.0 8.0 0.00 0.14 0.00 65 1010.0
20260506071557 62 159 1.0 4.0 0.00 0.14 0.00 65 1010.1
20260506061604 64 184 2.0 9.0 0.00 0.14 0.00 61 1010.6
20260506050104 64 276 1.0 9.0 0.00 0.14 0.00 58 1011.1
20260506044611 64 305 1.0 10.0 0.00 0.14 0.00 60 1011.1
20260506043059 64 0 1.0 7.0 0.00 0.14 0.00 59 1011.2
20260506041610 64 180 1.0 9.0 0.00 0.14 0.00 58 1011.2
20260506040104 64 159 0.0 8.0 0.00 0.14 0.00 56 1011.2
20260506034602 64 139 0.0 3.0 0.00 0.14 0.14 55 1011.2
20260506033059 66 0 1.0 7.0 0.00 0.14 0.14 53 1011.1
20260506031600 66 164 0.0 5.0 0.00 0.14 0.14 50 1011.2
20260506024608 67 180 2.0 8.0 0.00 0.14 0.14 48 1011.2
20260506023102 68 176 2.0 7.0 0.00 0.14 0.14 46 1011.3
20260506021558 69 148 3.0 9.0 0.00 0.14 0.14 45 1011.2
20260506020123 70 182 2.0 13.0 0.00 0.14 0.14 44 1011.2
20260506014559 70 160 2.0 10.0 0.00 0.14 0.14 45 1011.0
20260506013057 71 0 3.0 12.0 0.00 0.14 0.14 45 1010.9
20260506011600 71 222 2.0 12.0 0.00 0.14 0.14 44 1010.6
20260506010104 71 156 4.0 13.0 0.00 0.14 0.14 44 1010.4
20260506004600 71 173 5.0 13.0 0.00 0.14 0.14 46 1010.2
20260506003058 71 225 4.0 13.0 0.00 0.14 0.14 47 1010.3
20260506001607 72 186 3.0 13.0 0.00 0.14 0.14 45 1010.2
20260506000123 72 201 3.0 10.0 0.00 0.14 0.14 46 1010.1
20260505234616 72 158 4.0 14.0 0.00 0.14 0.14 44 1009.9
20260505233100 73 199 2.0 20.0 0.00 0.14 0.14 43 1009.8
20260505231603 74 0 0.0 0.0 0.00 0.14 0.14 41 1009.7
20260505230100 74 0 0.0 0.0 0.00 0.14 0.14 40 1009.4
20260505224559 75 0 0.0 0.0 0.00 0.14 0.14 39 1009.6
20260505223105 75 0 0.0 18.0 0.00 0.14 0.14 37 1009.4